Albert Lea, MN

12:20 AM CST on February 26, 2017 (GMT -0600)
Albert Lea Municipal

Weather History for KAEL - March, 2013

Change the Weather History Date:

Saturday, March 30, 2013

  Actual Average Record
Temperature  
Mean Temperature 44 °F -  
Max Temperature 51 °F 45 °F 71 °F (1999)
Min Temperature 37 °F 29 °F 23 °F (2011)
Degree Days  
Heating Degree Days 21    
Moisture  
Dew Point 40 °F    
Average Humidity 84    
Maximum Humidity 100    
Minimum Humidity 71    
Precipitation  
Precipitation 0.06 in - - ()
Sea Level Pressure  
Sea Level Pressure 29.92 in    
Wind  
Wind Speed 9 mph (WSW)    
Max Wind Speed 14 mph    
Max Gust Speed 21 mph    
Visibility 8 miles    
Events Fog , Rain    
Averages and records for this station are not official NWS values.
T = Trace of Precipitation, MM = Missing Value Source: NWS Daily Summary

Daily Weather History Graph

Daily Weather History Graph

Search for Another Location

Airport or City:

Trip Planner

Search our weather history database for the weather conditions in past years. The results will help you decide how hot, cold, wet, or windy it might be!

Date:

Astronomy

Mar. 30, 2013 Rise Set
Actual Time 6:58 AM CDT 7:38 PM CDT
Civil Twilight 6:29 AM CDT 8:07 PM CDT
Nautical Twilight 5:55 AM CDT 8:41 PM CDT
Astronomical Twilight 5:19 AM CDT 9:17 PM CDT
Moon 11:53 PM CDT (3/30) 8:46 AM CDT (3/30)
Length of Visible Light 13h 37m
Length of Day
12h 40m
Waning Gibbous, 86% of the Moon is Illuminated
Mar 30
Waning Gibbous
Apr 2
Last Quarter
Apr 10
New
Apr 18
First Quarter
Apr 25
Full

Hourly Weather History & Observations

Time (CDT) Temp. Windchill Dew Point Humidity Pressure Visibility Wind Dir Wind Speed Gust Speed Precip Events Conditions
12:12 AM 42.8 °F 36.6 °F 37.4 °F 81% 30.07 in 7.0 mi SSE 11.5 mph - N/A   Scattered Clouds
12:32 AM 42.8 °F 36.2 °F 35.6 °F 76% 30.06 in 10.0 mi SSE 12.7 mph - N/A   Clear
12:52 AM 42.8 °F 36.2 °F 35.6 °F 76% 30.06 in 10.0 mi SSE 12.7 mph - N/A   Clear
1:13 AM 42.8 °F 36.6 °F 35.6 °F 76% 30.05 in 10.0 mi SSE 11.5 mph - N/A   Clear
1:33 AM 42.8 °F 36.2 °F 35.6 °F 76% 30.04 in 10.0 mi SSE 12.7 mph - N/A   Scattered Clouds
1:52 AM 42.8 °F 36.2 °F 35.6 °F 76% 30.03 in 10.0 mi SSE 12.7 mph - N/A   Clear
2:13 AM 41.0 °F 34.3 °F 35.6 °F 81% 30.03 in 10.0 mi SSE 11.5 mph - N/A   Clear
2:33 AM 41.0 °F 34.3 °F 35.6 °F 81% 30.02 in 10.0 mi SSE 11.5 mph - N/A   Clear
2:52 AM 41.0 °F 33.9 °F 35.6 °F 81% 30.01 in 10.0 mi SSE 12.7 mph - N/A   Scattered Clouds
3:13 AM 41.0 °F 35.8 °F 35.6 °F 81% 30.01 in 10.0 mi South 8.1 mph - N/A   Scattered Clouds
3:32 AM 41.0 °F 35.8 °F 35.6 °F 81% 30.01 in 10.0 mi South 8.1 mph - N/A   Mostly Cloudy
3:53 AM 42.8 °F 37.0 °F 35.6 °F 76% 30.00 in 10.0 mi South 10.4 mph - N/A   Mostly Cloudy
4:12 AM 42.8 °F 37.0 °F 35.6 °F 76% 30.00 in 10.0 mi South 10.4 mph - N/A   Mostly Cloudy
4:32 AM 42.8 °F 36.6 °F 35.6 °F 76% 29.99 in 10.0 mi South 11.5 mph 17.3 mph N/A   Scattered Clouds
4:53 AM 41.0 °F 34.3 °F 35.6 °F 81% 29.98 in 10.0 mi South 11.5 mph - N/A   Clear
5:12 AM 41.0 °F 34.7 °F 35.6 °F 81% 29.97 in 10.0 mi South 10.4 mph 16.1 mph N/A   Clear
5:32 AM 41.0 °F 34.3 °F 35.6 °F 81% 29.96 in 10.0 mi South 11.5 mph - N/A   Clear
5:53 AM 41.0 °F 35.2 °F 35.6 °F 81% 29.96 in 10.0 mi South 9.2 mph 16.1 mph N/A   Clear
6:12 AM 39.2 °F 33.0 °F 35.6 °F 87% 29.95 in 10.0 mi South 9.2 mph - N/A   Clear
6:32 AM 41.0 °F 34.3 °F 35.6 °F 81% 29.94 in 10.0 mi South 11.5 mph - N/A   Scattered Clouds
6:53 AM 41.0 °F 33.9 °F 35.6 °F 81% 29.93 in 10.0 mi South 12.7 mph - N/A   Mostly Cloudy
7:12 AM 42.8 °F 35.8 °F 37.4 °F 81% 29.93 in 10.0 mi South 13.8 mph 20.7 mph N/A   Mostly Cloudy
7:32 AM 42.8 °F 36.2 °F 37.4 °F 81% 29.93 in 10.0 mi South 12.7 mph 16.1 mph N/A   Scattered Clouds
7:53 AM 42.8 °F 36.6 °F 37.4 °F 81% 29.93 in 10.0 mi South 11.5 mph 17.3 mph N/A   Scattered Clouds
8:12 AM 44.6 °F 38.4 °F 37.4 °F 76% 29.92 in 10.0 mi South 12.7 mph 18.4 mph N/A   Mostly Cloudy
8:32 AM 44.6 °F 40.2 °F 37.4 °F 76% 29.93 in 10.0 mi SSW 8.1 mph - N/A   Scattered Clouds
8:53 AM 44.6 °F 39.2 °F 37.4 °F 76% 29.92 in 10.0 mi SSW 10.4 mph - N/A   Clear
9:12 AM 46.4 °F 40.4 °F 39.2 °F 76% 29.91 in 10.0 mi SSW 13.8 mph 17.3 mph N/A   Clear
9:32 AM 48.2 °F - 39.2 °F 71% 29.90 in 10.0 mi South 10.4 mph 17.3 mph N/A   Scattered Clouds
9:53 AM 48.2 °F - 42.8 °F 82% 29.89 in 10.0 mi SSW 11.5 mph 19.6 mph N/A   Scattered Clouds
10:12 AM 48.2 °F - 42.8 °F 82% 29.90 in 10.0 mi SSW 10.4 mph 16.1 mph N/A   Mostly Cloudy
10:33 AM 48.2 °F - 42.8 °F 82% 29.92 in 10.0 mi NW 3.5 mph - N/A Rain Light Rain
10:52 AM 48.2 °F - 44.6 °F 87% 29.91 in 7.0 mi Calm Calm - N/A Rain Light Rain
11:12 AM 46.4 °F 45.2 °F 44.6 °F 93% 29.90 in 7.0 mi SW 3.5 mph - 0.02 in Rain Light Rain
11:33 AM 46.4 °F 44.3 °F 44.6 °F 93% 29.90 in 5.0 mi West 4.6 mph - 0.04 in Rain Rain
11:52 AM 46.4 °F 45.2 °F 46.4 °F 100% 29.90 in 2.0 mi WNW 3.5 mph - 0.01 in Rain Light Rain
12:12 PM 46.4 °F - 46.4 °F 100% 29.90 in 1.5 mi Calm Calm - 0.02 in   Drizzle
12:33 PM 46.4 °F - 44.6 °F 93% 29.89 in 1.2 mi Calm Calm - 0.02 in   Overcast
12:52 PM 46.4 °F - 46.4 °F 100% 29.89 in 0.5 mi Calm Calm - N/A Fog Fog
1:12 PM 46.4 °F 45.2 °F 46.4 °F 100% 29.89 in 2.0 mi SW 3.5 mph - N/A   Overcast
1:33 PM 48.2 °F - 48.2 °F 100% 29.89 in 5.0 mi West 4.6 mph - N/A   Overcast
1:52 PM 48.2 °F - 46.4 °F 93% 29.88 in 7.0 mi WNW 5.8 mph - N/A   Overcast
2:12 PM 48.2 °F - 46.4 °F 93% 29.88 in 7.0 mi NW 3.5 mph - N/A   Mostly Cloudy
2:33 PM 50.0 °F - 46.4 °F 87% 29.88 in 5.0 mi WNW 8.1 mph - N/A   Mostly Cloudy
2:52 PM 50.0 °F - 46.4 °F 87% 29.87 in 5.0 mi NNW 6.9 mph - N/A   Scattered Clouds
3:12 PM 51.8 °F - 46.4 °F 82% 29.87 in 7.0 mi NW 8.1 mph - N/A   Scattered Clouds
3:33 PM 51.8 °F - 46.4 °F 82% 29.87 in 5.0 mi NW 8.1 mph - N/A   Haze
3:52 PM 51.8 °F - 46.4 °F 82% 29.87 in 7.0 mi NW 8.1 mph - N/A   Clear
4:12 PM 51.8 °F - 44.6 °F 76% 29.87 in 7.0 mi NNW 9.2 mph - N/A   Scattered Clouds
4:32 PM 51.8 °F - 46.4 °F 82% 29.87 in 7.0 mi NW 8.1 mph - N/A   Clear
4:52 PM 51.8 °F - 44.6 °F 76% 29.87 in 7.0 mi NW 6.9 mph - N/A   Clear
5:13 PM 51.8 °F - 44.6 °F 76% 29.87 in 7.0 mi NW 8.1 mph - N/A   Clear
5:33 PM 51.8 °F - 44.6 °F 76% 29.87 in 10.0 mi NW 6.9 mph - N/A   Clear
5:52 PM 51.8 °F - 44.6 °F 76% 29.87 in 10.0 mi NW 5.8 mph - N/A   Clear
6:13 PM 51.8 °F - 44.6 °F 76% 29.87 in 10.0 mi NW 5.8 mph - N/A   Clear
6:33 PM 51.8 °F - 44.6 °F 76% 29.87 in 10.0 mi NW 5.8 mph - N/A   Clear
6:52 PM 50.0 °F - 42.8 °F 76% 29.87 in 10.0 mi NW 5.8 mph - N/A   Clear
7:13 PM 48.2 °F - 42.8 °F 82% 29.87 in 10.0 mi NW 4.6 mph - N/A   Clear
7:33 PM 48.2 °F - 42.8 °F 82% 29.87 in 10.0 mi NW 5.8 mph - N/A   Clear
7:52 PM 46.4 °F 44.3 °F 42.8 °F 87% 29.87 in 7.0 mi NNW 4.6 mph - N/A   Clear
8:13 PM 44.6 °F 41.4 °F 42.8 °F 93% 29.87 in 7.0 mi NW 5.8 mph - N/A   Clear
8:33 PM 44.6 °F 40.7 °F 41.0 °F 87% 29.87 in 7.0 mi NNW 6.9 mph - N/A   Clear
8:52 PM 42.8 °F 40.1 °F 39.2 °F 87% 29.88 in 7.0 mi NW 4.6 mph - N/A   Clear
9:13 PM 41.0 °F - 39.2 °F 93% 29.88 in 5.0 mi Calm Calm - N/A   Clear
9:32 PM 41.0 °F 36.4 °F 39.2 °F 93% 29.88 in 4.0 mi WNW 6.9 mph - N/A   Clear
9:53 PM 41.0 °F 36.4 °F 39.2 °F 93% 29.88 in 4.0 mi WNW 6.9 mph - N/A   Clear
10:13 PM 39.2 °F 33.6 °F 39.2 °F 100% 29.89 in 4.0 mi NW 8.1 mph - N/A   Clear
10:32 PM 39.2 °F 33.6 °F 37.4 °F 93% 29.89 in 5.0 mi NW 8.1 mph - N/A   Clear
10:53 PM 37.4 °F 33.8 °F 37.4 °F 100% 29.89 in 4.0 mi NW 4.6 mph - N/A   Clear
11:13 PM 37.4 °F - 35.6 °F 93% 29.88 in 4.0 mi Calm Calm - N/A   Clear
11:32 PM 37.4 °F - 35.6 °F 93% 29.88 in 4.0 mi Calm Calm - N/A   Clear
11:53 PM 37.4 °F 32.8 °F 35.6 °F 93% 29.88 in 2.5 mi WNW 5.8 mph - N/A   Clear